Weather History for Flag Island, MN

Change the Weather History Date:

Wednesday, July 3, 2013

  Actual Average Record
Temperature  
Mean Temperature 72 °F -  
Max Temperature 78 °F 68 °F 84 °F (2012)
Min Temperature 66 °F 56 °F 48 °F (1997)
Cooling Degree Days 7    
Growing Degree Days 22 (Base 50)    
Moisture  
Dew Point 64 °F    
Average Humidity 71    
Maximum Humidity 83    
Minimum Humidity 60    
Precipitation  
Precipitation 0.00 in - - ()
Sea Level Pressure  
Sea Level Pressure 29.94 in    
Wind  
Wind Speed 3 mph (South)    
Max Wind Speed 10 mph    
Max Gust Speed -    
Visibility 2 miles    
Events      
Averages and records for this station are not official NWS values.
T = Trace of Precipitation, MM = Missing Value Source: NWS Daily Summary

Daily Weather History Graph

Daily Weather History Graph

Search for Another Location

Airport:

Trip Planner

Search our weather history database for the weather conditions in past years. The results will help you decide how hot, cold, wet, or windy it might be!

Date:

Astronomy

Jul. 03, 2013 Rise Set
Actual Time 5:19 AM CDT 9:27 PM CDT
Civil Twilight 4:36 AM CDT 10:10 PM CDT
Nautical Twilight 3:35 AM CDT 11:11 PM CDT
Astronomical Twilight 1:56 AM CDT 12:51 AM CDT
Moon 2:10 AM CDT (7/3) 5:30 PM CDT (7/3)
Length of Visible Light 17h 33m
Length of Day
16h 08m
Waning Crescent, 18% of the Moon is Illuminated
Jul 3
Waning Crescent
Jul 8
New
Jul 15
First Quarter
Jul 22
Full
Jul 29
Last Quarter

Hourly Weather History & Observations

Time (CDT) Temp. Dew Point Humidity Pressure Visibility Wind Dir Wind Speed Gust Speed Precip Events Conditions
12:13 AM 71.6 °F 62.6 °F 73% 30.01 in 2.0 mi Calm Calm - N/A   Haze
12:33 AM 71.6 °F 59.0 °F 64% 30.01 in 1.8 mi Calm Calm - N/A   Haze
12:54 AM 71.6 °F 62.6 °F 73% 30.01 in 1.8 mi Calm Calm - N/A   Haze
1:13 AM 71.6 °F 64.4 °F 78% 30.01 in 1.5 mi Calm Calm - N/A   Haze
1:33 AM 69.8 °F 62.6 °F 78% 30.01 in 1.5 mi Calm Calm - N/A   Haze
1:54 AM 69.8 °F 60.8 °F 73% 30.01 in 0.8 mi Calm Calm - N/A   Haze
2:13 AM 69.8 °F 60.8 °F 73% 30.00 in 1.5 mi Calm Calm - N/A   Haze
2:33 AM 69.8 °F 62.6 °F 78% 30.00 in 1.5 mi Calm Calm - N/A   Haze
2:54 AM 69.8 °F 62.6 °F 78% 30.00 in 1.2 mi Calm Calm - N/A   Haze
3:13 AM 69.8 °F 62.6 °F 78% 30.00 in 0.2 mi Calm Calm - N/A   Haze
3:33 AM 71.6 °F 60.8 °F 69% 29.99 in 0.2 mi SSW 3.5 mph - N/A   Haze
3:54 AM 69.8 °F 60.8 °F 73% 30.00 in 0.2 mi Calm Calm - N/A   Haze
4:13 AM 69.8 °F 60.8 °F 73% 29.99 in 1.0 mi Calm Calm - N/A   Haze
4:33 AM 69.8 °F 60.8 °F 73% 29.99 in 1.5 mi Calm Calm - N/A   Haze
4:54 AM 69.8 °F 59.0 °F 68% 29.99 in 1.8 mi South 3.5 mph - N/A   Haze
5:13 AM 66.2 °F 60.8 °F 83% 29.99 in 1.2 mi South 3.5 mph - N/A   Haze
5:33 AM 69.8 °F 60.8 °F 73% 29.98 in 0.5 mi SW 5.8 mph - N/A   Haze
5:54 AM 69.8 °F 59.0 °F 68% 29.98 in 0.2 mi WSW 9.2 mph - N/A   Haze
6:13 AM 71.6 °F 57.2 °F 60% 29.99 in 0.2 mi WSW 9.2 mph - N/A   Haze
6:33 AM 71.6 °F 57.2 °F 60% 29.99 in 0.2 mi WSW 9.2 mph - N/A   Haze
6:54 AM 71.6 °F 57.2 °F 60% 29.99 in 0.5 mi SW 10.4 mph - N/A   Haze
7:14 AM 69.8 °F 62.6 °F 78% 30.01 in 0.8 mi Calm Calm - N/A   Haze
7:33 AM 69.8 °F 62.6 °F 78% 30.00 in 1.5 mi Calm Calm - N/A   Haze
7:54 AM 71.6 °F 62.6 °F 73% 30.00 in 1.5 mi Calm Calm - N/A   Haze
8:13 AM 73.4 °F 62.6 °F 69% 29.99 in 1.5 mi Calm Calm - N/A   Haze
8:33 AM 73.4 °F 62.6 °F 69% 29.99 in 1.8 mi SW 4.6 mph - N/A   Haze
8:53 AM 75.2 °F 64.4 °F 69% 29.99 in 1.5 mi Calm Calm - N/A   Haze
9:13 AM 75.2 °F 64.4 °F 69% 29.98 in 1.5 mi Calm Calm - N/A   Haze
9:34 AM 77.0 °F 62.6 °F 61% 29.98 in 1.5 mi Calm Calm - N/A   Haze
9:53 AM 77.0 °F 62.6 °F 61% 29.98 in 1.5 mi Calm Calm - N/A   Haze
10:13 AM 75.2 °F 66.2 °F 73% 29.98 in 1.5 mi Calm Calm - N/A   Haze
10:34 AM 75.2 °F 64.4 °F 69% 29.97 in 1.5 mi Calm Calm - N/A   Haze
10:53 AM 75.2 °F 66.2 °F 73% 29.97 in 1.5 mi SSE 5.8 mph - N/A   Haze
11:13 AM 75.2 °F 66.2 °F 73% 29.97 in 1.5 mi SSE 8.1 mph - N/A   Haze
11:34 AM 75.2 °F 66.2 °F 73% 29.96 in 1.8 mi SSE 6.9 mph - N/A   Haze
11:53 AM 75.2 °F 66.2 °F 73% 29.96 in 1.8 mi SSE 6.9 mph - N/A   Haze
12:13 PM 75.2 °F 66.2 °F 73% 29.95 in 1.8 mi SSE 8.1 mph - N/A   Haze
12:34 PM 75.2 °F 66.2 °F 73% 29.95 in 1.8 mi SSE 9.2 mph - N/A   Haze
12:53 PM 75.2 °F 66.2 °F 73% 29.95 in 2.0 mi South 9.2 mph - N/A   Haze
1:13 PM 77.0 °F 66.2 °F 69% 29.94 in 2.0 mi SSE 8.1 mph - N/A   Haze
1:34 PM 75.2 °F 66.2 °F 73% 29.94 in 2.0 mi SSE 8.1 mph - N/A   Haze
1:53 PM 77.0 °F 64.4 °F 65% 29.93 in 1.8 mi SSE 9.2 mph - N/A   Haze
2:13 PM 78.8 °F 66.2 °F 65% 29.93 in 2.0 mi SSE 9.2 mph - N/A   Haze
2:34 PM 78.8 °F 66.2 °F 65% 29.92 in 2.0 mi SSE 9.2 mph - N/A   Haze
2:53 PM 78.8 °F 66.2 °F 65% 29.92 in 2.0 mi SSE 9.2 mph - N/A   Haze
3:13 PM 78.8 °F 66.2 °F 65% 29.91 in 2.0 mi SSE 9.2 mph - N/A   Haze
3:34 PM 78.8 °F 66.2 °F 65% 29.91 in 2.0 mi SSE 9.2 mph - N/A   Haze
3:53 PM 78.8 °F 66.2 °F 65% 29.90 in 2.0 mi SSE 9.2 mph - N/A   Haze
4:13 PM 78.8 °F 66.2 °F 65% 29.89 in 2.5 mi SSE 8.1 mph - N/A   Haze
4:34 PM 78.8 °F 68.0 °F 69% 29.89 in 2.5 mi SSE 9.2 mph - N/A   Haze
4:53 PM 78.8 °F 66.2 °F 65% 29.89 in 2.5 mi South 8.1 mph - N/A   Haze
5:13 PM 78.8 °F 66.2 °F 65% 29.88 in 2.5 mi South 6.9 mph - N/A   Haze
5:34 PM 78.8 °F 68.0 °F 69% 29.88 in 2.5 mi South 6.9 mph - N/A   Haze
5:53 PM 78.8 °F 66.2 °F 65% 29.88 in 2.5 mi South 9.2 mph - N/A   Haze
6:13 PM 78.8 °F 66.2 °F 65% 29.88 in 2.5 mi South 9.2 mph - N/A   Haze
6:34 PM 77.0 °F 66.2 °F 69% 29.87 in 2.5 mi South 8.1 mph - N/A   Haze
6:53 PM 75.2 °F 66.2 °F 73% 29.86 in 2.5 mi South 8.1 mph - N/A   Haze
7:13 PM 75.2 °F 66.2 °F 73% 29.86 in 2.5 mi South 5.8 mph - N/A   Haze
7:34 PM 75.2 °F 66.2 °F 73% 29.86 in 2.5 mi South 6.9 mph - N/A   Haze
7:53 PM 75.2 °F 68.0 °F 78% 29.86 in 2.5 mi South 6.9 mph - N/A   Haze
8:13 PM 75.2 °F 68.0 °F 78% 29.86 in 2.5 mi South 8.1 mph - N/A   Haze
8:34 PM 75.2 °F 64.4 °F 69% 29.85 in 3.0 mi South 5.8 mph - N/A   Haze
8:53 PM 73.4 °F 66.2 °F 78% 29.85 in 3.0 mi South 3.5 mph - N/A   Haze
9:13 PM 73.4 °F 62.6 °F 69% 29.85 in 3.0 mi SW 4.6 mph - N/A   Haze
9:34 PM 73.4 °F 64.4 °F 73% 29.85 in 3.0 mi Calm Calm - N/A   Haze
9:53 PM 73.4 °F 62.6 °F 69% 29.85 in 4.0 mi Calm Calm - N/A   Haze
10:13 PM 73.4 °F 60.8 °F 65% 29.85 in 4.0 mi SSW 4.6 mph - N/A   Haze
10:34 PM 73.4 °F 64.4 °F 73% 29.85 in 4.0 mi Calm Calm - N/A   Haze
10:53 PM 71.6 °F 64.4 °F 78% 29.85 in 3.0 mi Calm Calm - N/A   Haze
11:13 PM 73.4 °F 64.4 °F 73% 29.84 in 3.0 mi South 3.5 mph - N/A   Haze
11:34 PM 73.4 °F 64.4 °F 73% 29.84 in 3.0 mi South 4.6 mph - N/A   Haze
11:53 PM 73.4 °F 64.4 °F 73% 29.84 in 4.0 mi South 3.5 mph - N/A   Haze